Location: Unspecified
(48.8582°N, 2.2947°E)
Time: 00:05:26
(UTC+02:00)

ISS - Pass Details

Date: 25 March 2019
Orbit: 408 x 410 km, 51.6° (Epoch: 22 April)

Event Time Altitude Azimuth Distance (km) Brightness Sun altitude
Rises 20:11:22 0° 240° (WSW) 2,330 0.8 -10.6°
Reaches altitude 10° 20:13:27 10° 238° (WSW) 1,471 -0.4 -11.0°
Maximum altitude 20:16:44 68° 155° (SSE) 444 -3.8 -11.5°
Enters shadow 20:19:15 16° 74° (ENE) 1,165 -2.0 -11.9°
